Epoch = 2023 Aug. 4.0 TT T = 2023 July 16.76712 TT Peri. = 11.45139 e = 0.1890793 Node = 26.79277 2000.0 q = 2.5416089 AU Incl. = 1.09786 a = 3.1342264 AU n = 0.17762681 P = 5.55 years
m1 = 15.0 + 5 logΔ + 10.0 log r